Year,Month,Day,Hour,Minute,Value (Times are PST for barometer in hPa)
2021,10,25,00,00,988.15
2021,10,25,00,01,988.18
2021,10,25,00,02,988.15
2021,10,25,00,03,988.18
2021,10,25,00,04,988.22
2021,10,25,00,05,988.25
2021,10,25,00,06,988.22
2021,10,25,00,07,988.18
2021,10,25,00,08,988.28
2021,10,25,00,09,988.28
2021,10,25,00,10,988.32
2021,10,25,00,11,988.35
2021,10,25,00,12,988.32
2021,10,25,00,13,988.35
2021,10,25,00,14,988.39
2021,10,25,00,15,988.39
2021,10,25,00,16,988.39
2021,10,25,00,17,988.28
2021,10,25,00,18,988.39
2021,10,25,00,19,988.35
2021,10,25,00,20,988.34
2021,10,25,00,21,988.18
2021,10,25,00,22,988.18
2021,10,25,00,23,988.28
2021,10,25,00,24,988.39
2021,10,25,00,25,988.49
2021,10,25,00,26,988.52
2021,10,25,00,27,988.55
2021,10,25,00,28,988.49
2021,10,25,00,29,988.66
2021,10,25,00,30,988.52
2021,10,25,00,31,988.58
2021,10,25,00,32,988.42
2021,10,25,00,33,988.55
2021,10,25,00,34,988.66
2021,10,25,00,35,988.62
2021,10,25,00,36,988.59
2021,10,25,00,37,988.69
2021,10,25,00,38,988.69
2021,10,25,00,39,988.62
2021,10,25,00,40,988.66
2021,10,25,00,41,988.69
2021,10,25,00,42,988.66
2021,10,25,00,43,988.69
2021,10,25,00,44,988.52
2021,10,25,00,45,988.62
2021,10,25,00,46,988.59
2021,10,25,00,47,988.45
2021,10,25,00,48,988.52
2021,10,25,00,49,988.45
2021,10,25,00,50,988.45
2021,10,25,00,51,988.45
2021,10,25,00,52,988.49
2021,10,25,00,53,988.52
2021,10,25,00,54,988.49
2021,10,25,00,55,988.49
2021,10,25,00,56,988.59
2021,10,25,00,57,988.59
2021,10,25,00,58,988.59
2021,10,25,00,59,988.59
2021,10,25,01,00,988.59
2021,10,25,01,01,988.66
2021,10,25,01,02,988.55
2021,10,25,01,03,988.62
2021,10,25,01,04,988.52
2021,10,25,01,05,988.62
2021,10,25,01,06,988.72
2021,10,25,01,07,988.66
2021,10,25,01,08,988.72
2021,10,25,01,09,988.62
2021,10,25,01,10,988.69
2021,10,25,01,11,988.76
2021,10,25,01,12,988.83
2021,10,25,01,13,988.76
2021,10,25,01,14,988.83
2021,10,25,01,15,988.72
2021,10,25,01,16,988.69
2021,10,25,01,17,988.76
2021,10,25,01,18,988.72
2021,10,25,01,19,988.62
2021,10,25,01,20,988.76
2021,10,25,01,21,988.72
2021,10,25,01,22,988.69
2021,10,25,01,23,988.72
2021,10,25,01,24,988.76
2021,10,25,01,25,988.62
2021,10,25,01,26,988.72
2021,10,25,01,27,988.59
2021,10,25,01,28,988.59
2021,10,25,01,29,988.69
2021,10,25,01,30,988.72
2021,10,25,01,31,988.76
2021,10,25,01,32,988.72
2021,10,25,01,33,988.72
2021,10,25,01,34,988.76
2021,10,25,01,35,988.72
2021,10,25,01,36,988.83
2021,10,25,01,37,988.83
2021,10,25,01,38,988.79
2021,10,25,01,39,988.89
2021,10,25,01,40,988.89
2021,10,25,01,41,988.89
2021,10,25,01,42,988.83
2021,10,25,01,43,988.83
2021,10,25,01,44,988.86
2021,10,25,01,45,988.86
2021,10,25,01,46,988.86
2021,10,25,01,47,988.89
2021,10,25,01,48,988.86
2021,10,25,01,49,988.89
2021,10,25,01,50,988.83
2021,10,25,01,51,988.76
2021,10,25,01,52,988.72
2021,10,25,01,53,988.79
2021,10,25,01,54,988.78
2021,10,25,01,55,988.63
2021,10,25,01,56,988.79
2021,10,25,01,57,988.83
2021,10,25,01,58,988.79
2021,10,25,01,59,988.76
2021,10,25,02,00,988.69
2021,10,25,02,01,988.72
2021,10,25,02,02,988.73
2021,10,25,02,03,988.93
2021,10,25,02,04,988.76
2021,10,25,02,05,988.79
2021,10,25,02,06,988.86
2021,10,25,02,07,988.93
2021,10,25,02,08,988.84
2021,10,25,02,09,989.00
2021,10,25,02,10,988.89
2021,10,25,02,11,988.89
2021,10,25,02,12,988.96
2021,10,25,02,13,989.03
2021,10,25,02,14,989.10
2021,10,25,02,15,989.23
2021,10,25,02,16,989.23
2021,10,25,02,17,989.06
2021,10,25,02,18,989.03
2021,10,25,02,19,989.01
2021,10,25,02,20,989.16
2021,10,25,02,21,989.13
2021,10,25,02,22,989.23
2021,10,25,02,23,989.23
2021,10,25,02,24,989.06
2021,10,25,02,25,989.03
2021,10,25,02,26,989.16
2021,10,25,02,27,989.16
2021,10,25,02,28,989.16
2021,10,25,02,29,989.23
2021,10,25,02,30,989.27
2021,10,25,02,31,989.16
2021,10,25,02,32,989.11
2021,10,25,02,33,989.30
2021,10,25,02,34,989.23
2021,10,25,02,35,989.28
2021,10,25,02,36,989.40
2021,10,25,02,37,989.33
2021,10,25,02,38,989.23
2021,10,25,02,39,989.30
2021,10,25,02,40,989.37
2021,10,25,02,41,989.33
2021,10,25,02,42,989.33
2021,10,25,02,43,989.33
2021,10,25,02,44,989.30
2021,10,25,02,45,989.37
2021,10,25,02,46,989.40
2021,10,25,02,47,989.29
2021,10,25,02,48,989.06
2021,10,25,02,49,989.13
2021,10,25,02,50,989.13
2021,10,25,02,51,989.23
2021,10,25,02,52,989.16
2021,10,25,02,53,989.27
2021,10,25,02,54,989.33
2021,10,25,02,55,989.37
2021,10,25,02,56,989.33
2021,10,25,02,57,989.37
2021,10,25,02,58,989.23
2021,10,25,02,59,989.30
2021,10,25,03,00,989.37
2021,10,25,03,01,989.47
2021,10,25,03,02,989.40
2021,10,25,03,03,989.47
2021,10,25,03,04,989.37
2021,10,25,03,05,989.37
2021,10,25,03,06,989.47
2021,10,25,03,07,989.41
2021,10,25,03,08,989.54
2021,10,25,03,09,989.54
2021,10,25,03,10,989.47
2021,10,25,03,11,989.47
2021,10,25,03,12,989.54
2021,10,25,03,13,989.56
2021,10,25,03,14,989.40
2021,10,25,03,15,989.40
2021,10,25,03,16,989.44
2021,10,25,03,17,989.44
2021,10,25,03,18,989.54
2021,10,25,03,19,989.50
2021,10,25,03,20,989.54
2021,10,25,03,21,989.59
2021,10,25,03,22,989.47
2021,10,25,03,23,989.57
2021,10,25,03,24,989.57
2021,10,25,03,25,989.54
2021,10,25,03,26,989.54
2021,10,25,03,27,989.54
2021,10,25,03,28,989.66
2021,10,25,03,29,989.54
2021,10,25,03,30,989.44
2021,10,25,03,31,989.51
2021,10,25,03,32,989.64
2021,10,25,03,33,989.50
2021,10,25,03,34,989.54
2021,10,25,03,35,989.47
2021,10,25,03,36,989.40
2021,10,25,03,37,989.54
2021,10,25,03,38,989.54
2021,10,25,03,39,989.60
2021,10,25,03,40,989.64
2021,10,25,03,41,989.60
2021,10,25,03,42,989.64
2021,10,25,03,43,989.74
2021,10,25,03,44,989.77
2021,10,25,03,45,989.65
2021,10,25,03,46,989.77
2021,10,25,03,47,989.60
2021,10,25,03,48,989.74
2021,10,25,03,49,989.81
2021,10,25,03,52,989.88
2021,10,25,03,53,989.94
2021,10,25,03,54,989.88
2021,10,25,03,55,989.94
2021,10,25,09,13,992.48
2021,10,25,09,14,992.52
2021,10,25,09,15,992.48
2021,10,25,09,16,992.52
2021,10,25,09,17,992.52
2021,10,25,09,18,992.43
2021,10,25,09,19,992.58
2021,10,25,09,20,992.58
2021,10,25,09,21,992.65
2021,10,25,09,22,992.69
2021,10,25,09,23,992.69
2021,10,25,09,24,992.79
2021,10,25,09,25,992.82
2021,10,25,09,26,992.89
2021,10,25,09,27,992.98
2021,10,25,09,28,992.79
2021,10,25,09,29,992.79
2021,10,25,09,30,992.75
2021,10,25,09,31,992.72
2021,10,25,09,32,992.75
2021,10,25,09,33,992.79
2021,10,25,09,34,992.75
2021,10,25,09,35,992.63
2021,10,25,09,36,992.85
2021,10,25,09,37,992.69
2021,10,25,09,38,992.72
2021,10,25,09,39,992.69
2021,10,25,09,40,992.62
2021,10,25,09,41,992.62
2021,10,25,09,42,992.55
2021,10,25,09,43,992.52
2021,10,25,09,44,992.58
2021,10,25,09,45,992.52
2021,10,25,09,46,992.55
2021,10,25,09,47,992.42
2021,10,25,09,48,992.52
2021,10,25,09,49,992.45
2021,10,25,09,50,992.42
2021,10,25,09,51,992.42
2021,10,25,09,52,992.55
2021,10,25,09,53,992.52
2021,10,25,09,54,992.42
2021,10,25,09,55,992.52
2021,10,25,09,56,992.52
2021,10,25,09,57,992.48
2021,10,25,09,58,992.55
2021,10,25,09,59,992.62
2021,10,25,10,00,992.62
2021,10,25,10,01,992.62
2021,10,25,10,02,992.62
2021,10,25,10,03,992.52
2021,10,25,10,04,992.62
2021,10,25,10,05,992.52
2021,10,25,10,06,992.52
2021,10,25,10,07,992.55
2021,10,25,10,08,992.52
2021,10,25,10,09,992.58
2021,10,25,10,10,992.62
2021,10,25,10,11,992.65
2021,10,25,10,12,992.65
2021,10,25,10,13,992.62
2021,10,25,10,14,992.52
2021,10,25,10,15,992.65
2021,10,25,10,16,992.58
2021,10,25,10,17,992.58
2021,10,25,10,18,992.48
2021,10,25,10,19,992.62
2021,10,25,10,20,992.55
2021,10,25,10,21,992.52
2021,10,25,10,22,992.48
2021,10,25,10,23,992.48
2021,10,25,10,24,992.62
2021,10,25,10,25,992.55
2021,10,25,10,26,992.55
2021,10,25,10,27,992.58
2021,10,25,10,28,992.52
2021,10,25,10,29,992.52
2021,10,25,10,30,992.52
2021,10,25,10,31,992.42
2021,10,25,10,32,992.52
2021,10,25,10,33,992.55
2021,10,25,10,34,992.62
2021,10,25,10,35,992.65
2021,10,25,10,36,992.58
2021,10,25,10,37,992.62
2021,10,25,10,38,992.62
2021,10,25,10,39,992.62
2021,10,25,10,40,992.69
2021,10,25,10,41,992.69
2021,10,25,10,42,992.72
2021,10,25,10,43,992.79
2021,10,25,10,44,992.69
2021,10,25,10,45,992.72
2021,10,25,10,46,992.82
2021,10,25,10,47,992.79
2021,10,25,10,48,992.82
2021,10,25,10,49,992.75
2021,10,25,10,50,992.79
2021,10,25,10,51,992.82
2021,10,25,10,52,992.72
2021,10,25,10,53,992.75
2021,10,25,10,54,992.79
2021,10,25,10,55,992.75
2021,10,25,10,56,992.88
2021,10,25,10,57,992.72
2021,10,25,10,58,992.75
2021,10,25,10,59,992.85
2021,10,25,11,00,992.69
2021,10,25,11,01,992.82
2021,10,25,11,02,992.72
2021,10,25,11,03,992.79
2021,10,25,11,04,992.72
2021,10,25,11,05,992.72
2021,10,25,11,06,992.62
2021,10,25,11,07,992.75
2021,10,25,11,08,992.69
2021,10,25,11,09,992.65
2021,10,25,11,10,992.75
2021,10,25,11,11,992.72
2021,10,25,11,12,992.79
2021,10,25,11,13,992.79
2021,10,25,11,14,992.75
2021,10,25,11,15,992.79
2021,10,25,11,16,992.75
2021,10,25,11,17,992.79
2021,10,25,11,18,992.86
2021,10,25,11,19,992.82
2021,10,25,11,20,992.92
2021,10,25,11,21,992.99
2021,10,25,11,22,992.89
2021,10,25,11,23,992.92
2021,10,25,11,24,992.92
2021,10,25,11,25,992.86
2021,10,25,11,26,992.96
2021,10,25,11,27,992.89
2021,10,25,11,28,992.99
2021,10,25,11,29,993.03
2021,10,25,11,30,993.09
2021,10,25,11,31,993.16
2021,10,25,11,32,993.06
2021,10,25,11,33,993.09
2021,10,25,11,34,993.03
2021,10,25,11,35,993.13
2021,10,25,11,36,993.13
2021,10,25,11,37,993.06
2021,10,25,11,38,993.22
2021,10,25,11,39,993.09
2021,10,25,11,40,993.19
2021,10,25,11,41,993.26
2021,10,25,11,42,993.26
2021,10,25,11,43,993.19
2021,10,25,11,44,993.19
2021,10,25,11,45,993.16
2021,10,25,11,46,993.26
2021,10,25,11,47,993.33
2021,10,25,11,48,993.19
2021,10,25,11,49,993.26
2021,10,25,11,50,993.23
2021,10,25,11,51,993.30
2021,10,25,11,52,993.33
2021,10,25,11,53,993.36
2021,10,25,11,54,993.36
2021,10,25,11,55,993.47
2021,10,25,11,56,993.50
2021,10,25,11,57,993.53
2021,10,25,11,58,993.53
2021,10,25,11,59,993.43
2021,10,25,12,00,993.47
2021,10,25,12,01,993.43
2021,10,25,12,02,993.57
2021,10,25,12,03,993.53
2021,10,25,12,04,993.53
2021,10,25,12,05,993.50
2021,10,25,12,06,993.57
2021,10,25,12,07,993.43
2021,10,25,12,08,993.47
2021,10,25,12,09,993.43
2021,10,25,12,10,993.47
2021,10,25,12,11,993.43
2021,10,25,12,12,993.40
2021,10,25,12,13,993.43
2021,10,25,12,14,993.50
2021,10,25,12,15,993.47
2021,10,25,12,16,993.47
2021,10,25,12,17,993.50
2021,10,25,12,18,993.60
2021,10,25,12,19,993.60
2021,10,25,12,20,993.63
2021,10,25,12,21,993.74
2021,10,25,12,22,993.67
2021,10,25,12,23,993.74
2021,10,25,12,24,993.77
2021,10,25,12,25,993.87
2021,10,25,12,26,993.91
2021,10,25,12,27,993.87
2021,10,25,12,28,993.86
2021,10,25,12,29,993.74
2021,10,25,12,30,993.74
2021,10,25,12,31,993.77
2021,10,25,12,32,993.80
2021,10,25,12,33,993.77
2021,10,25,12,34,993.80
2021,10,25,12,35,993.80
2021,10,25,12,36,993.77
2021,10,25,12,37,993.84
2021,10,25,12,38,993.77
2021,10,25,12,39,993.84
2021,10,25,12,40,993.87
2021,10,25,12,41,993.84
2021,10,25,12,42,993.77
2021,10,25,12,43,993.80
2021,10,25,12,44,993.87
2021,10,25,12,45,993.87
2021,10,25,12,46,993.77
2021,10,25,12,47,993.67
2021,10,25,12,48,993.67
2021,10,25,12,49,993.73
2021,10,25,12,50,993.60
2021,10,25,12,51,993.50
2021,10,25,12,52,993.50
2021,10,25,12,53,993.50
2021,10,25,12,54,993.57
2021,10,25,12,55,993.36
2021,10,25,12,56,993.43
2021,10,25,12,57,993.50
2021,10,25,12,58,993.48
2021,10,25,12,59,993.63
2021,10,25,13,00,993.67
2021,10,25,13,01,993.70
2021,10,25,13,02,993.74
2021,10,25,13,03,993.70
2021,10,25,13,04,993.77
2021,10,25,13,05,993.80
2021,10,25,13,06,993.74
2021,10,25,13,07,993.84
2021,10,25,13,08,993.94
2021,10,25,13,09,993.77
2021,10,25,13,10,993.80
2021,10,25,13,11,993.87
2021,10,25,13,12,993.91
2021,10,25,13,13,993.84
2021,10,25,13,14,993.80
2021,10,25,13,15,993.77
2021,10,25,13,16,993.84
2021,10,25,13,17,993.94
2021,10,25,13,18,993.94
2021,10,25,13,19,993.87
2021,10,25,13,20,994.01
2021,10,25,13,21,993.94
2021,10,25,13,22,993.87
2021,10,25,13,23,993.94
2021,10,25,13,24,993.91
2021,10,25,13,25,993.77
2021,10,25,13,26,993.80
2021,10,25,13,27,993.87
2021,10,25,13,28,993.91
2021,10,25,13,29,993.84
2021,10,25,13,30,993.91
2021,10,25,13,31,993.94
2021,10,25,13,32,993.94
2021,10,25,13,33,993.84
2021,10,25,13,34,993.87
2021,10,25,13,35,993.77
2021,10,25,13,36,993.80
2021,10,25,13,37,993.83
2021,10,25,13,38,993.67
2021,10,25,13,39,993.77
2021,10,25,13,40,993.70
2021,10,25,13,41,993.57
2021,10,25,13,42,993.70
2021,10,25,13,43,993.74
2021,10,25,13,44,993.67
2021,10,25,13,45,993.80
2021,10,25,13,46,993.85
2021,10,25,13,47,994.01
2021,10,25,13,48,994.04
2021,10,25,13,49,994.11
2021,10,25,13,50,994.11
2021,10,25,13,51,994.21
2021,10,25,13,52,994.14
2021,10,25,13,53,994.18
2021,10,25,13,54,994.11
2021,10,25,13,55,994.28
2021,10,25,13,56,994.14
2021,10,25,13,57,994.28
2021,10,25,13,58,994.31
2021,10,25,13,59,994.24
2021,10,25,14,00,994.38
2021,10,25,14,01,994.28
2021,10,25,14,02,994.21
2021,10,25,14,03,994.38
2021,10,25,14,04,994.41
2021,10,25,14,05,994.41
2021,10,25,14,06,994.38
2021,10,25,14,07,994.41
2021,10,25,14,08,994.52
2021,10,25,14,09,994.48
2021,10,25,14,10,994.41
2021,10,25,14,11,994.48
2021,10,25,14,12,994.58
2021,10,25,14,13,994.41
2021,10,25,14,14,994.41
2021,10,25,14,15,994.48
2021,10,25,14,16,994.52
2021,10,25,14,17,994.52
2021,10,25,14,18,994.55
2021,10,25,14,19,994.62
2021,10,25,14,20,994.67
2021,10,25,14,21,994.55
2021,10,25,14,22,994.58
2021,10,25,14,23,994.62
2021,10,25,14,24,994.62
2021,10,25,14,25,994.58
2021,10,25,14,26,994.55
2021,10,25,14,27,994.55
2021,10,25,14,28,994.45
2021,10,25,14,29,994.45
2021,10,25,14,30,994.55
2021,10,25,14,31,994.52
2021,10,25,14,32,994.48
2021,10,25,14,33,994.58
2021,10,25,14,34,994.55
2021,10,25,14,35,994.62
2021,10,25,14,36,994.55
2021,10,25,14,37,994.65
2021,10,25,14,38,994.82
2021,10,25,14,39,994.62
2021,10,25,14,40,994.68
2021,10,25,14,41,994.72
2021,10,25,14,42,994.75
2021,10,25,14,43,994.78
2021,10,25,14,44,994.62
2021,10,25,14,45,994.65
2021,10,25,14,46,994.68
2021,10,25,14,47,994.74
2021,10,25,14,48,994.62
2021,10,25,14,49,994.79
2021,10,25,14,50,994.82
2021,10,25,14,51,994.79
2021,10,25,14,52,994.82
2021,10,25,14,53,994.75
2021,10,25,14,54,994.82
2021,10,25,14,55,994.92
2021,10,25,14,56,994.92
2021,10,25,14,57,994.85
2021,10,25,14,58,994.96
2021,10,25,14,59,994.92
2021,10,25,15,00,995.02
2021,10,25,15,01,995.09
2021,10,25,15,02,995.12
2021,10,25,15,03,995.23
2021,10,25,15,04,995.06
2021,10,25,15,05,995.12
2021,10,25,15,06,995.19
2021,10,25,15,07,995.33
2021,10,25,15,08,995.33
2021,10,25,15,09,995.29
2021,10,25,15,10,995.26
2021,10,25,15,11,995.33
2021,10,25,15,12,995.33
2021,10,25,15,13,995.27
2021,10,25,15,14,995.43
2021,10,25,15,15,995.36
2021,10,25,15,16,995.33
2021,10,25,15,17,995.36
2021,10,25,15,18,995.46
2021,10,25,15,19,995.40
2021,10,25,15,20,995.53
2021,10,25,15,21,995.46
2021,10,25,15,22,995.46
2021,10,25,15,23,995.56
2021,10,25,15,24,995.56
2021,10,25,15,25,995.63
2021,10,25,15,26,995.63
2021,10,25,15,27,995.67
2021,10,25,15,28,995.67
2021,10,25,15,29,995.63
2021,10,25,15,30,995.63
2021,10,25,15,31,995.63
2021,10,25,15,32,995.77
2021,10,25,15,33,995.73
2021,10,25,15,34,995.77
2021,10,25,15,35,995.81
2021,10,25,15,36,996.03
2021,10,25,15,37,995.90
2021,10,25,15,38,995.90
2021,10,25,15,39,996.01
2021,10,25,15,40,995.87
2021,10,25,15,41,995.90
2021,10,25,15,42,995.90
2021,10,25,15,43,996.01
2021,10,25,15,44,996.07
2021,10,25,15,45,996.11
2021,10,25,15,46,996.11
2021,10,25,15,47,996.04
2021,10,25,15,48,996.21
2021,10,25,15,49,996.14
2021,10,25,15,50,996.21
2021,10,25,15,51,996.21
2021,10,25,15,52,996.24
2021,10,25,15,53,996.28
2021,10,25,15,54,996.31
2021,10,25,15,55,996.34
2021,10,25,15,56,996.21
2021,10,25,15,57,996.31
2021,10,25,15,58,996.31
2021,10,25,15,59,996.34
2021,10,25,16,00,996.38
2021,10,25,16,01,996.34
2021,10,25,16,02,996.34
2021,10,25,16,03,996.31
2021,10,25,16,04,996.45
2021,10,25,16,05,996.45
2021,10,25,16,06,996.45
2021,10,25,16,07,996.42
2021,10,25,16,08,996.58
2021,10,25,16,09,996.58
2021,10,25,16,10,996.58
2021,10,25,16,11,996.51
2021,10,25,16,12,996.55
2021,10,25,16,13,996.51
2021,10,25,16,14,996.55
2021,10,25,16,15,996.48
2021,10,25,16,16,996.72
2021,10,25,16,17,996.68
2021,10,25,16,18,996.75
2021,10,25,16,19,996.75
2021,10,25,16,20,996.78
2021,10,25,16,21,996.82
2021,10,25,16,22,996.89
2021,10,25,16,23,996.95
2021,10,25,16,24,996.95
2021,10,25,16,25,996.95
2021,10,25,16,26,996.85
2021,10,25,16,27,996.99
2021,10,25,16,28,996.99
2021,10,25,16,29,997.16
2021,10,25,16,30,997.09
2021,10,25,16,31,997.02
2021,10,25,16,32,997.02
2021,10,25,16,33,997.09
2021,10,25,16,34,997.09
2021,10,25,16,35,997.09
2021,10,25,16,36,997.09
2021,10,25,16,37,997.12
2021,10,25,16,38,997.12
2021,10,25,16,39,997.19
2021,10,25,16,40,997.16
2021,10,25,16,41,997.16
2021,10,25,16,42,997.19
2021,10,25,16,43,997.19
2021,10,25,16,44,997.12
2021,10,25,16,45,997.16
2021,10,25,16,46,997.12
2021,10,25,16,47,997.12
2021,10,25,16,48,997.12
2021,10,25,16,49,997.05
2021,10,25,16,50,997.16
2021,10,25,16,51,997.05
2021,10,25,16,52,997.12
2021,10,25,16,53,997.12
2021,10,25,16,54,997.12
2021,10,25,16,55,997.16
2021,10,25,16,56,997.12
2021,10,25,16,57,997.12
2021,10,25,16,58,997.22
2021,10,25,16,59,997.16
2021,10,25,17,00,997.09
2021,10,25,17,01,997.16
2021,10,25,17,02,997.22
2021,10,25,17,03,997.36
2021,10,25,17,04,997.33
2021,10,25,17,05,997.39
2021,10,25,17,06,997.33
2021,10,25,17,07,997.39
2021,10,25,17,08,997.46
2021,10,25,17,09,997.43
2021,10,25,17,10,997.50
2021,10,25,17,11,997.50
2021,10,25,17,12,997.63
2021,10,25,17,13,997.63
2021,10,25,17,14,997.60
2021,10,25,17,15,997.66
2021,10,25,17,16,997.66
2021,10,25,17,17,997.63
2021,10,25,17,18,997.60
2021,10,25,17,19,997.63
2021,10,25,17,20,997.66
2021,10,25,17,21,997.73
2021,10,25,17,22,997.70
2021,10,25,17,23,997.73
2021,10,25,17,24,997.70
2021,10,25,17,25,997.66
2021,10,25,17,26,997.66
2021,10,25,17,27,997.70
2021,10,25,17,28,997.77
2021,10,25,17,29,997.77
2021,10,25,17,30,997.70
2021,10,25,17,31,997.70
2021,10,25,17,32,997.73
2021,10,25,17,33,997.63
2021,10,25,17,34,997.70
2021,10,25,17,35,997.73
2021,10,25,17,36,997.77
2021,10,25,17,37,997.80
2021,10,25,17,38,997.77
2021,10,25,17,39,997.83
2021,10,25,17,40,997.87
2021,10,25,17,41,997.94
2021,10,25,17,42,998.04
2021,10,25,17,43,998.04
2021,10,25,17,44,998.14
2021,10,25,17,45,998.04
2021,10,25,17,46,998.17
2021,10,25,17,47,998.10
2021,10,25,17,48,998.10
2021,10,25,17,49,998.14
2021,10,25,17,50,998.17
2021,10,25,17,51,998.00
2021,10,25,17,52,998.07
2021,10,25,17,53,998.14
2021,10,25,17,54,998.04
2021,10,25,17,55,998.04
2021,10,25,17,56,998.04
2021,10,25,17,57,998.10
2021,10,25,17,58,998.10
2021,10,25,17,59,998.14
2021,10,25,18,00,998.10
2021,10,25,18,01,998.24
2021,10,25,18,02,998.24
2021,10,25,18,03,998.21
2021,10,25,18,04,998.31
2021,10,25,18,05,998.34
2021,10,25,18,06,998.31
2021,10,25,18,07,998.41
2021,10,25,18,08,998.44
2021,10,25,18,09,998.44
2021,10,25,18,10,998.41
2021,10,25,18,11,998.44
2021,10,25,18,12,998.41
2021,10,25,18,13,998.41
2021,10,25,18,14,998.38
2021,10,25,18,15,998.48
2021,10,25,18,16,998.54
2021,10,25,18,17,998.54
2021,10,25,18,18,998.65
2021,10,25,18,19,998.67
2021,10,25,18,20,998.54
2021,10,25,18,21,998.54
2021,10,25,18,22,998.68
2021,10,25,18,23,998.65
2021,10,25,18,24,998.61
2021,10,25,18,25,998.68
2021,10,25,18,26,998.65
2021,10,25,18,27,998.58
2021,10,25,18,28,998.65
2021,10,25,18,29,998.65
2021,10,25,18,30,998.65
2021,10,25,18,31,998.65
2021,10,25,18,32,998.75
2021,10,25,18,33,998.82
2021,10,25,18,34,998.78
2021,10,25,18,35,998.78
2021,10,25,18,36,998.75
2021,10,25,18,37,998.82
2021,10,25,18,38,998.88
2021,10,25,18,39,998.82
2021,10,25,18,40,998.82
2021,10,25,18,41,998.82
2021,10,25,18,42,998.92
2021,10,25,18,43,998.99
2021,10,25,18,44,998.95
2021,10,25,18,45,998.92
2021,10,25,18,46,998.95
2021,10,25,18,47,998.95
2021,10,25,18,48,999.02
2021,10,25,18,49,999.05
2021,10,25,18,50,999.09
2021,10,25,18,51,999.05
2021,10,25,18,52,999.09
2021,10,25,18,53,999.05
2021,10,25,18,54,999.12
2021,10,25,18,55,999.15
2021,10,25,18,56,999.05
2021,10,25,18,57,999.05
2021,10,25,18,58,999.12
2021,10,25,18,59,999.19
2021,10,25,19,00,999.15
2021,10,25,19,01,999.22
2021,10,25,19,02,999.26
2021,10,25,19,03,999.32
2021,10,25,19,04,999.29
2021,10,25,19,05,999.36
2021,10,25,19,06,999.32
2021,10,25,19,07,999.36
2021,10,25,19,08,999.36
2021,10,25,19,09,999.39
2021,10,25,19,10,999.49
2021,10,25,19,11,999.56
2021,10,25,19,12,999.66
2021,10,25,19,13,999.59
2021,10,25,19,14,999.66
2021,10,25,19,15,999.59
2021,10,25,19,16,999.70
2021,10,25,19,17,999.73
2021,10,25,19,18,999.76
2021,10,25,19,19,999.73
2021,10,25,19,20,999.80
2021,10,25,19,21,999.80
2021,10,25,19,22,999.76
2021,10,25,19,23,999.87
2021,10,25,19,24,999.93
2021,10,25,19,25,999.87
2021,10,25,19,26,999.83
2021,10,25,19,27,999.90
2021,10,25,19,28,999.90
2021,10,25,19,29,999.87
2021,10,25,19,30,999.97
2021,10,25,19,31,999.97
2021,10,25,19,32,1000.00
2021,10,25,19,33,1000.03
2021,10,25,19,34,1000.03
2021,10,25,19,35,1000.07
2021,10,25,19,36,999.97
2021,10,25,19,37,1000.07
2021,10,25,19,38,1000.07
2021,10,25,19,39,1000.10
2021,10,25,19,40,1000.17
2021,10,25,19,41,1000.24
2021,10,25,19,42,1000.20
2021,10,25,19,43,1000.24
2021,10,25,19,44,1000.20
2021,10,25,19,45,1000.17
2021,10,25,19,46,1000.24
2021,10,25,19,47,1000.20
2021,10,25,19,48,1000.31
2021,10,25,19,49,1000.31
2021,10,25,19,50,1000.24
2021,10,25,19,51,1000.37
2021,10,25,19,52,1000.31
2021,10,25,19,53,1000.27
2021,10,25,19,54,1000.24
2021,10,25,19,55,1000.37
2021,10,25,19,56,1000.31
2021,10,25,19,57,1000.28
2021,10,25,19,58,1000.41
2021,10,25,19,59,1000.44
2021,10,25,20,00,1000.44
2021,10,25,20,01,1000.48
2021,10,25,20,02,1000.41
2021,10,25,20,03,1000.41
2021,10,25,20,04,1000.51
2021,10,25,20,05,1000.44
2021,10,25,20,06,1000.54
2021,10,25,20,07,1000.54
2021,10,25,20,08,1000.54
2021,10,25,20,09,1000.58
2021,10,25,20,10,1000.61
2021,10,25,20,11,1000.58
2021,10,25,20,12,1000.61
2021,10,25,20,13,1000.64
2021,10,25,20,14,1000.64
2021,10,25,20,15,1000.71
2021,10,25,20,16,1000.75
2021,10,25,20,17,1000.77
2021,10,25,20,18,1000.58
2021,10,25,20,19,1000.78
2021,10,25,20,20,1000.78
2021,10,25,20,21,1000.81
2021,10,25,20,22,1000.85
2021,10,25,20,23,1000.75
2021,10,25,20,24,1000.81
2021,10,25,20,25,1000.81
2021,10,25,20,26,1000.78
2021,10,25,20,27,1000.88
2021,10,25,20,28,1000.92
2021,10,25,20,29,1000.92
2021,10,25,20,30,1000.95
2021,10,25,20,31,1000.92
2021,10,25,20,32,1000.95
2021,10,25,20,33,1000.95
2021,10,25,20,34,1000.95
2021,10,25,20,35,1000.92
2021,10,25,20,36,1000.98
2021,10,25,20,37,1001.05
2021,10,25,20,38,1001.05
2021,10,25,20,39,1001.02
2021,10,25,20,40,1001.05
2021,10,25,20,41,1001.08
2021,10,25,20,42,1000.95
2021,10,25,20,43,1001.05
2021,10,25,20,44,1001.08
2021,10,25,20,45,1001.05
2021,10,25,20,46,1001.05
2021,10,25,20,47,1001.05
2021,10,25,20,48,1001.02
2021,10,25,20,49,1001.12
2021,10,25,20,50,1001.05
2021,10,25,20,51,1001.05
2021,10,25,20,52,1001.12
2021,10,25,20,53,1001.08
2021,10,25,20,54,1001.15
2021,10,25,20,55,1001.15
2021,10,25,20,56,1001.25
2021,10,25,20,57,1001.29
2021,10,25,20,58,1001.19
2021,10,25,20,59,1001.29
2021,10,25,21,00,1001.32
2021,10,25,21,01,1001.39
2021,10,25,21,02,1001.36
2021,10,25,21,03,1001.39
2021,10,25,21,04,1001.36
2021,10,25,21,05,1001.42
2021,10,25,21,06,1001.49
2021,10,25,21,07,1001.56
2021,10,25,21,08,1001.52
2021,10,25,21,09,1001.66
2021,10,25,21,10,1001.73
2021,10,25,21,11,1001.73
2021,10,25,21,12,1001.66
2021,10,25,21,13,1001.83
2021,10,25,21,14,1001.90
2021,10,25,21,15,1001.90
2021,10,25,21,16,1001.90
2021,10,25,21,17,1001.93
2021,10,25,21,18,1002.00
2021,10,25,21,19,1001.97
2021,10,25,21,20,1002.03
2021,10,25,21,21,1002.20
2021,10,25,21,22,1002.13
2021,10,25,21,23,1002.13
2021,10,25,21,24,1002.20
2021,10,25,21,25,1002.20
2021,10,25,21,26,1002.30
2021,10,25,21,27,1002.27
2021,10,25,21,28,1002.27
2021,10,25,21,29,1002.34
2021,10,25,21,30,1002.44
2021,10,25,21,31,1002.44
2021,10,25,21,32,1002.44
2021,10,25,21,33,1002.44
2021,10,25,21,34,1002.47
2021,10,25,21,35,1002.51
2021,10,25,21,36,1002.51
2021,10,25,21,37,1002.51
2021,10,25,21,38,1002.51
2021,10,25,21,39,1002.51
2021,10,25,21,40,1002.54
2021,10,25,21,41,1002.57
2021,10,25,21,42,1002.54
2021,10,25,21,43,1002.57
2021,10,25,21,44,1002.64
2021,10,25,21,45,1002.68
2021,10,25,21,46,1002.71
2021,10,25,21,47,1002.68
2021,10,25,21,48,1002.81
2021,10,25,21,49,1002.78